• In Netherlands
  • List of Countries
  • For 7 days
  • Water Temperature
  • Satellite Maps
  • Weather Map
  • Weather Widgets
  • user-avatar
    Login

    Hourly Weather San Miguel de Tucumán

    Today, 21 August, Monday

    Time Temperature Precipitation Wind Pressure Humidity
    00:00 +14°C° 0 mm 3 mps 726 mmHg 38%
    01:00 +14°C° 0 mm 3 mps 726 mmHg 39%
    02:00 +13°C° 0 mm 3 mps 726 mmHg 39%
    03:00 +13°C° 0 mm 3 mps 725 mmHg 41%
    04:00 +13°C° 0 mm 3 mps 725 mmHg 42%
    05:00 +13°C° 0 mm 3 mps 725 mmHg 44%
    06:00 +13°C° 0 mm 3 mps 725 mmHg 43%
    07:00 +14°C° 0 mm 4 mps 726 mmHg 42%
    08:00 +14°C° 0 mm 4 mps 726 mmHg 41%
    09:00 +17°C° 0 mm 4 mps 726 mmHg 35%
    10:00 +20°C° 0 mm 5 mps 726 mmHg 30%
    11:00 +22°C° 0 mm 5 mps 726 mmHg 25%
    12:00 +23°C° 0 mm 5 mps 725 mmHg 24%
    13:00 +25°C° 0 mm 5 mps 724 mmHg 23%
    14:00 +26°C° 0 mm 5 mps 724 mmHg 22%
    15:00 +25°C° 0 mm 5 mps 723 mmHg 23%
    16:00 +25°C° 0 mm 5 mps 723 mmHg 24%
    17:00 +23°C° 0 mm 4 mps 722 mmHg 25%
    18:00 +22°C° 0 mm 4 mps 722 mmHg 27%
    19:00 +20°C° 0 mm 4 mps 722 mmHg 29%
    20:00 +19°C° 0 mm 4 mps 722 mmHg 31%
    21:00 +18°C° 0 mm 4 mps 722 mmHg 31%
    22:00 +18°C° 0 mm 4 mps 722 mmHg 31%
    23:00 +18°C° 0 mm 4 mps 721 mmHg 31%

    Tomorrow, 22 August, Tuesday

    Time Temperature Precipitation Wind Pressure Humidity
    00:00 +18°C° 0 mm 4 mps 721 mmHg 32%
    01:00 +18°C° 0 mm 4 mps 720 mmHg 32%
    02:00 +18°C° 0 mm 4 mps 719 mmHg 32%
    03:00 +17°C° 0 mm 4 mps 719 mmHg 32%
    04:00 +17°C° 0 mm 4 mps 718 mmHg 32%
    05:00 +17°C° 0 mm 4 mps 717 mmHg 32%
    06:00 +17°C° 0 mm 4 mps 717 mmHg 31%
    07:00 +18°C° 0 mm 4 mps 717 mmHg 29%
    08:00 +19°C° 0 mm 4 mps 717 mmHg 28%
    09:00 +21°C° 0 mm 4 mps 717 mmHg 24%
    10:00 +25°C° 0 mm 4 mps 717 mmHg 20%
    11:00 +28°C° 0 mm 5 mps 716 mmHg 16%
    12:00 +30°C° 0 mm 5 mps 715 mmHg 15%
    13:00 +32°C° 0 mm 5 mps 714 mmHg 14%
    14:00 +33°C° 0 mm 5 mps 713 mmHg 12%
    15:00 +32°C° 0 mm 5 mps 712 mmHg 13%
    16:00 +32°C° 0 mm 5 mps 712 mmHg 15%
    17:00 +30°C° 0 mm 5 mps 712 mmHg 16%
    18:00 +28°C° 0 mm 5 mps 712 mmHg 17%
    19:00 +26°C° 0 mm 4 mps 712 mmHg 19%
    20:00 +23°C° 0 mm 4 mps 712 mmHg 21%
    21:00 +23°C° 0 mm 4 mps 712 mmHg 21%
    22:00 +23°C° 0 mm 4 mps 712 mmHg 21%
    23:00 +22°C° 0 mm 3 mps 712 mmHg 21%

    Day after tomorrow, 23 August, Wednesday

    Time Temperature Precipitation Wind Pressure Humidity
    00:00 +22°C° 0 mm 3 mps 712 mmHg 21%
    01:00 +21°C° 0 mm 3 mps 711 mmHg 22%
    02:00 +21°C° 0 mm 2 mps 711 mmHg 22%
    03:00 +20°C° 0 mm 2 mps 711 mmHg 24%
    04:00 +19°C° 0 mm 2 mps 711 mmHg 26%
    05:00 +19°C° 0 mm 2 mps 710 mmHg 28%
    06:00 +19°C° 0 mm 2 mps 711 mmHg 29%
    07:00 +20°C° 0 mm 1 mps 712 mmHg 30%
    08:00 +20°C° 0 mm 1 mps 713 mmHg 31%
    09:00 +23°C° 0 mm 2 mps 714 mmHg 29%
    10:00 +25°C° 0 mm 2 mps 715 mmHg 26%
    11:00 +27°C° 0 mm 2 mps 715 mmHg 24%
    12:00 +28°C° 0 mm 3 mps 715 mmHg 23%
    13:00 +29°C° 0 mm 3 mps 714 mmHg 22%
    14:00 +30°C° 0 mm 3 mps 714 mmHg 22%
    15:00 +29°C° 0 mm 3 mps 714 mmHg 24%
    16:00 +28°C° 0 mm 3 mps 715 mmHg 27%
    17:00 +28°C° 0 mm 3 mps 715 mmHg 30%
    18:00 +26°C° 0 mm 3 mps 715 mmHg 34%
    19:00 +24°C° 0 mm 2 mps 716 mmHg 38%
    20:00 +21°C° 0 mm 2 mps 717 mmHg 42%
    21:00 +20°C° 0 mm 2 mps 717 mmHg 44%
    22:00 +20°C° 0 mm 2 mps 717 mmHg 46%
    23:00 +20°C° 0 mm 1 mps 717 mmHg 47%

    24 August, Thursday

    Time Temperature Precipitation Wind Pressure Humidity
    00:00 +20°C° 0 mm 1 mps 716 mmHg 50%
    01:00 +19°C° 0 mm 1 mps 716 mmHg 53%
    02:00 +18°C° 0 mm 1 mps 715 mmHg 56%
    03:00 +18°C° 0 mm 1 mps 715 mmHg 59%
    04:00 +16°C° 0 mm 1 mps 714 mmHg 62%
    05:00 +16°C° 0 mm 1 mps 714 mmHg 65%
    06:00 +18°C° 0 mm 1 mps 714 mmHg 64%
    07:00 +18°C° 0 mm 1 mps 715 mmHg 63%
    08:00 +19°C° 0 mm 1 mps 715 mmHg 61%
    09:00 +21°C° 0 mm 1 mps 715 mmHg 56%
    10:00 +24°C° 0 mm 2 mps 715 mmHg 50%
    11:00 +26°C° 0 mm 2 mps 714 mmHg 44%
    12:00 +27°C° 0 mm 2 mps 714 mmHg 42%
    13:00 +29°C° 0 mm 2 mps 713 mmHg 40%
    14:00 +30°C° 0 mm 2 mps 712 mmHg 37%
    15:00 +29°C° 0 mm 2 mps 712 mmHg 39%
    16:00 +29°C° 0 mm 2 mps 712 mmHg 41%
    17:00 +29°C° 0 mm 1 mps 712 mmHg 43%
    18:00 +27°C° 0 mm 1 mps 713 mmHg 51%
    19:00 +24°C° 0 mm 1 mps 713 mmHg 59%
    20:00 +22°C° 0 mm 1 mps 713 mmHg 67%
    21:00 +21°C° 0 mm 2 mps 713 mmHg 67%
    22:00 +21°C° 0 mm 2 mps 714 mmHg 68%
    23:00 +21°C° 0 mm 2 mps 714 mmHg 69%

    25 August, Friday

    Time Temperature Precipitation Wind Pressure Humidity
    00:00 +22°C° 0 mm 1 mps 714 mmHg 68%
    01:00 +21°C° 0 mm 1 mps 714 mmHg 68%
    02:00 +21°C° 0 mm 1 mps 713 mmHg 67%
    03:00 +21°C° 0 mm 1 mps 714 mmHg 65%
    04:00 +21°C° 0 mm 1 mps 714 mmHg 63%
    05:00 +21°C° 0 mm 1 mps 714 mmHg 61%
    06:00 +22°C° 0 mm 1 mps 714 mmHg 59%
    07:00 +22°C° 0 mm 1 mps 715 mmHg 56%
    08:00 +23°C° 0 mm 1 mps 715 mmHg 54%
    09:00 +25°C° 0 mm 2 mps 715 mmHg 52%
    10:00 +27°C° 0 mm 2 mps 715 mmHg 50%
    11:00 +29°C° 0 mm 2 mps 716 mmHg 48%
    12:00 +29°C° 0 mm 2 mps 715 mmHg 46%
    13:00 +30°C° 0 mm 3 mps 715 mmHg 43%
    14:00 +31°C° 0 mm 3 mps 715 mmHg 41%
    15:00 +31°C° 0.2 mm 3 mps 715 mmHg 43%
    16:00 +30°C° 0.2 mm 3 mps 715 mmHg 45%
    17:00 +30°C° 0.2 mm 3 mps 715 mmHg 48%
    18:00 +28°C° 0.4 mm 3 mps 716 mmHg 49%
    19:00 +26°C° 0.4 mm 3 mps 717 mmHg 50%
    20:00 +25°C° 0.4 mm 3 mps 718 mmHg 51%
    21:00 +24°C° 0 mm 2 mps 719 mmHg 53%
    22:00 +23°C° 0 mm 2 mps 719 mmHg 55%
    23:00 +20°C° 0 mm 2 mps 719 mmHg 57%

    26 August, Saturday

    Time Temperature Precipitation Wind Pressure Humidity
    00:00 +20°C° 0 mm 2 mps 719 mmHg 65%
    01:00 +20°C° 0 mm 1 mps 718 mmHg 73%
    02:00 +20°C° 0 mm 1 mps 718 mmHg 81%
    03:00 +19°C° 0 mm 1 mps 718 mmHg 82%
    04:00 +19°C° 0 mm 1 mps 718 mmHg 84%
    05:00 +19°C° 0 mm 1 mps 718 mmHg 86%
    06:00 +19°C° 0 mm 1 mps 719 mmHg 83%
    07:00 +19°C° 0 mm 1 mps 719 mmHg 81%
    08:00 +19°C° 0 mm 1 mps 720 mmHg 78%
    09:00 +21°C° 0 mm 1 mps 720 mmHg 70%
    10:00 +22°C° 0 mm 1 mps 720 mmHg 62%
    11:00 +24°C° 0 mm 2 mps 719 mmHg 54%
    12:00 +25°C° 0 mm 2 mps 719 mmHg 50%
    13:00 +26°C° 0 mm 2 mps 718 mmHg 46%
    14:00 +27°C° 0 mm 2 mps 717 mmHg 41%
    15:00 +27°C° 0 mm 2 mps 717 mmHg 42%
    16:00 +27°C° 0 mm 2 mps 717 mmHg 43%
    17:00 +26°C° 0 mm 2 mps 717 mmHg 44%
    18:00 +25°C° 0 mm 2 mps 717 mmHg 50%
    19:00 +23°C° 0 mm 1 mps 718 mmHg 57%
    20:00 +21°C° 0 mm 1 mps 718 mmHg 63%
    21:00 +21°C° 0 mm 1 mps 718 mmHg 65%
    22:00 +20°C° 0 mm 1 mps 718 mmHg 68%
    23:00 +20°C° 0 mm 1 mps 718 mmHg 70%
    Show more